Regional Weather Roundup
Issued by NWS

Home | Current Version | Previous Version | Graphics & Text | Print | Product List | Glossary Off
Versions: 1 2 3 4 5 6 7 8 9 10 11 12 13 14 15 16 17 18 19 20 21 22 23 24 25 26 27 28 29 30 31 32 33 34 35 36 37 38 39 40 41 42 43 44 45 46 47 48 49 50

000
ASUS43 KTOP 190208
RWRKS

WEATHER ROUNDUP FOR KANSAS
NATIONAL WEATHER SERVICE GOODLAND KS
900 PM CDT FRI AUG 18 2017

NOTE:  "FAIR" INDICATES FEW OR NO CLOUDS BELOW 12,000 FEET WITH NO
SIGNIFICANT WEATHER AND/OR OBSTRUCTIONS TO VISIBILITY.

KSZ001>006-013>018-027>032-041>047-190300-
NORTHWEST KANSAS

CITY           SKY/WX    TMP DP  RH WIND       PRES   REMARKS
GOODLAND       CLEAR     68  58  70 SE9       30.08R
HAYS           CLEAR     76  64  66 NE10      29.97S
HILL CITY      CLEAR     73  62  68 CALM      30.00R
RUSSELL        CLEAR     77  64  64 N5        29.95R
$$

KSZ061>065-074>080-084>089-190300-
SOUTHWEST KANSAS

CITY           SKY/WX    TMP DP  RH WIND       PRES   REMARKS
DODGE CITY     CLEAR     81  61  50 S6        29.99R
ELKHART          N/A     74  68  82 S7          N/A
GARDEN CITY    CLEAR     80  62  54 NE6       30.01R
GREAT BEND     CLEAR     82  67  60 E6        29.96R
LIBERAL        CLEAR     79  69  71 S7        30.03R
PRATT          CLEAR     82  64  55 S9        29.95S
$$

KSZ066>073-081>083-090>101-190300-
SOUTHEAST KANSAS

CITY           SKY/WX    TMP DP  RH WIND       PRES   REMARKS
CHANUTE        CLEAR     77  71  82 S6        29.94R
COFFEYVILLE    CLEAR     78  75  90 S3        29.91R
HUTCHINSON     CLEAR     81  69  67 SE9       29.94R
MEDICINE LODGE   N/A     83  66  56 SE8       29.92S
NEWTON         CLEAR     77  70  79 SE7       29.96R
PARSONS        LGT RAIN  75  73  93 CALM      29.95R
WICHITA INTL   CLEAR     81  67  62 SE7       29.93S
WICHITA JABRA  CLEAR     79  69  71 S6        29.94S
WICHITA MCCONL CLEAR     82  66  58 S6        29.94S
WINFIELD       CLEAR     82  69  64 SE6       29.94S
$$

KSZ007>012-019>026-033>040-048>060-102>105-190300-
NORTHEAST KANSAS

CITY           SKY/WX    TMP DP  RH WIND       PRES   REMARKS
CONCORDIA      CLEAR     75  69  81 CALM      29.94S
EMPORIA        CLEAR     78  69  73 S5        29.92R
LAWRENCE       PTCLDY    76  73  91 CALM      29.90R
MANHATTAN      CLEAR     77  71  82 CALM      29.92R
MARYSVILLE     CLEAR     73  68  83 CALM      29.93S
OLATHE IND     PTCLDY    79  69  71 SW3       29.92R
OLATHE EXE     CLEAR     77  72  84 S5        29.92R
SALINA         CLEAR     87  66  49 NE7       29.93R
TOPEKA BILLARD PTCLDY    82  68  62 SW5       29.90S
TOPEKA FORBES  CLEAR     78  69  73 CALM      29.92R
$$




USA.gov is the U.S. government's official web portal to all federal, state and local government web resources and services.